TimeEDT,TemperatureF,Dew PointF,Humidity,Sea Level PressureIn,VisibilityMPH,Wind Direction,Wind SpeedMPH,Gust SpeedMPH,PrecipitationIn,Events,Conditions,WindDirDegrees,DateUTC
12:51 AM,44.1,43.0,96,29.91,10.0,Calm,Calm,-,N/A,,Clear,0,2013-09-25 04:51:00
1:51 AM,42.1,41.0,96,29.90,10.0,Calm,Calm,-,N/A,,Clear,0,2013-09-25 05:51:00
2:51 AM,41.0,39.9,96,29.89,10.0,Calm,Calm,-,N/A,,Clear,0,2013-09-25 06:51:00
3:51 AM,39.9,39.9,100,29.89,10.0,Calm,Calm,-,N/A,,Clear,0,2013-09-25 07:51:00
4:51 AM,39.9,39.0,97,29.89,10.0,Calm,Calm,-,N/A,,Clear,0,2013-09-25 08:51:00
5:51 AM,39.0,37.9,96,29.90,10.0,Calm,Calm,-,N/A,,Clear,0,2013-09-25 09:51:00
6:51 AM,43.0,42.1,97,29.90,10.0,West,4.6,-,N/A,,Clear,280,2013-09-25 10:51:00
7:51 AM,48.9,46.0,90,29.90,10.0,Calm,Calm,-,N/A,,Clear,0,2013-09-25 11:51:00
8:51 AM,55.9,46.0,69,29.91,10.0,NW,5.8,-,N/A,,Clear,320,2013-09-25 12:51:00
9:51 AM,57.9,46.0,65,29.93,10.0,NW,4.6,-,N/A,,Partly Cloudy,310,2013-09-25 13:51:00
10:51 AM,60.1,45.0,57,29.93,10.0,Calm,Calm,-,N/A,,Partly Cloudy,0,2013-09-25 14:51:00
11:51 AM,64.0,45.0,50,29.92,10.0,NW,6.9,-,N/A,,Overcast,320,2013-09-25 15:51:00
12:51 PM,64.0,46.0,52,29.91,10.0,NNW,8.1,-,N/A,,Scattered Clouds,330,2013-09-25 16:51:00
1:51 PM,66.9,48.0,51,29.90,10.0,NW,10.4,-,N/A,,Overcast,320,2013-09-25 17:51:00
2:51 PM,66.9,46.9,49,29.90,10.0,NNW,8.1,-,N/A,,Mostly Cloudy,330,2013-09-25 18:51:00
3:51 PM,64.9,46.9,52,29.90,10.0,North,9.2,-,N/A,,Overcast,360,2013-09-25 19:51:00
4:51 PM,62.1,46.0,56,29.91,10.0,NNW,11.5,-,N/A,,Overcast,330,2013-09-25 20:51:00
5:51 PM,61.0,48.0,62,29.93,10.0,NE,6.9,-,N/A,,Overcast,40,2013-09-25 21:51:00
6:51 PM,59.0,46.9,64,29.94,10.0,North,8.1,-,N/A,,Overcast,350,2013-09-25 22:51:00
7:51 PM,57.9,46.9,67,29.96,10.0,North,4.6,-,N/A,,Overcast,10,2013-09-25 23:51:00
8:51 PM,57.0,46.9,69,29.97,10.0,North,4.6,-,N/A,,Overcast,350,2013-09-26 00:51:00
9:51 PM,55.9,46.9,72,29.99,10.0,NNW,3.5,-,N/A,,Overcast,340,2013-09-26 01:51:00
10:51 PM,55.0,46.9,74,30.00,10.0,NNW,3.5,-,N/A,,Overcast,340,2013-09-26 02:51:00
11:51 PM,54.0,46.9,77,30.00,10.0,NNW,3.5,-,N/A,,Overcast,330,2013-09-26 03:51:00